This is the latest recevied weather packets stored in our database for station/object IU5GBO-13. If no packets are shown the sender has not sent any weather packets the latest 10 day(s).
| Time | Temp. | Humidity | Pressure | Rain* | Wind** | Luminosity | Snow |
|---|---|---|---|---|---|---|---|
| 1777824376 | 20.56° C | 49% | 1019.6 hPa | - | - | - | - |
| 1777823776 | 21.11° C | 46% | 1019.5 hPa | - | - | - | - |
| 1777823176 | 21.11° C | 45% | 1019.5 hPa | - | - | - | - |
| 1777822577 | 21.67° C | 43% | 1019.7 hPa | - | - | - | - |
| 1777821977 | 21.67° C | 41% | 1019.7 hPa | - | - | - | - |
| 1777821377 | 21.67° C | 39% | 1019.8 hPa | - | - | - | - |
| 1777820777 | 22.22° C | 38% | 1019.8 hPa | - | - | - | - |
| 1777820176 | 22.78° C | 37% | 1019.9 hPa | - | - | - | - |
| 1777819577 | 22.78° C | 39% | 1019.8 hPa | - | - | - | - |
| 1777818976 | 22.78° C | 38% | 1019.8 hPa | - | - | - | - |
| 1777818377 | 22.78° C | 37% | 1020 hPa | - | - | - | - |
| 1777817777 | 23.33° C | 38% | 1020.2 hPa | - | - | - | - |
| 1777817177 | 22.78° C | 40% | 1020.3 hPa | - | - | - | - |
| 1777816576 | 22.78° C | 40% | 1020.5 hPa | - | - | - | - |
| 1777815977 | 22.78° C | 39% | 1020.7 hPa | - | - | - | - |
| 1777815376 | 22.78° C | 41% | 1020.8 hPa | - | - | - | - |
| 1777814776 | 22.78° C | 41% | 1021 hPa | - | - | - | - |
| 1777814177 | 22.78° C | 42% | 1021.1 hPa | - | - | - | - |
| 1777813576 | 23.33° C | 41% | 1021.2 hPa | - | - | - | - |
| 1777812976 | 23.33° C | 40% | 1021.4 hPa | - | - | - | - |
| 1777812376 | 23.33° C | 40% | 1021.5 hPa | - | - | - | - |
| 1777811776 | 23.33° C | 42% | 1021.7 hPa | - | - | - | - |
| 1777811177 | 23.33° C | 42% | 1021.9 hPa | - | - | - | - |
| 1777810577 | 23.33° C | 42% | 1021.9 hPa | - | - | - | - |
| 1777809976 | 23.33° C | 41% | 1022.1 hPa | - | - | - | - |
* Rain since midnight (hover to see other rain measurements)
** Current wind speed in m/s (hover to see current wind gust speed)